Regional Weather Roundup
Issued by NWS

Home | Current Version | Previous Version | Text Only | Print | Product List | Glossary Off
Versions: 1 2 3 4 5 6 7 8 9 10 11 12 13 14 15 16 17 18 19 20 21 22 23 24 25 26 27 28 29 30 31 32 33 34 35 36 37 38 39 40 41 42 43 44 45 46 47 48 49 50

000
ASUS43 KOAX 260110
RWRNE

WEATHER ROUNDUP FOR NEBRASKA
NATIONAL WEATHER SERVICE OMAHA NE
700 PM CST TUE NOV 25 2014

NOTES: SATELLITE DATA IS BEING USED TO AUGMENT CLOUD COVER ABOVE
       12000 FEET.
       "FAIR" INDICATES FEW OR NO CLOUDS BELOW 12,000 FEET WITH NO
       SIGNIFICANT WEATHER AND/OR OBSTRUCTIONS TO VISIBILITY.

  * THESE STATIONS DO NOT REPORT WEATHER SUCH AS RAIN...SNOW OR FOG.

NEZ001>004-019>022-054>056-260200-
NEBRASKA PANHANDLE

CITY           SKY/WX    TMP DP  RH WIND       PRES   REMARKS
SCOTTSBLUFF    MIX PCPN  34  32  92 W8        29.93S WCI  27
ALLIANCE       CLOUDY    36  28  73 NW12      29.88R WCI  28
CHADRON        CLOUDY    48  29  47 NW17      29.90R
KIMBALL        LGT SNOW  33  32  97 N17       29.90R WCI  22
SIDNEY         LGT SNOW  33  31  92 N20       29.93R FOG     WCI  21
$$

NEZ057>060-069>072-079>082-260200-
SOUTHWEST NEBRASKA

CITY           SKY/WX    TMP DP  RH WIND       PRES   REMARKS
NORTH PLATTE   CLOUDY    43  26  51 NW16G23   29.88R
IMPERIAL       CLOUDY    43  30  60 NW21G29   29.89R
LEXINGTON      MOCLDY    36  22  57 W7        29.85R WCI  31
MCCOOK         CLOUDY    41  21  44 NE6       29.86R
OGALLALA       CLOUDY    42  32  67 NW13      29.91R
$$

NEZ005>010-023>029-035>040-094-260200-
NORTH CENTRAL NEBRASKA

CITY           SKY/WX    TMP DP  RH WIND       PRES   REMARKS
VALENTINE      CLOUDY    36  32  85 W10       29.82R WCI  28
AINSWORTH      CLOUDY    36  32  85 NW14      29.82R WCI  27
BROKEN BOW     CLOUDY    43  28  55 W20       29.84R
O`NEILL        CLOUDY    40  28  62 W5        29.79S
ORD            MOCLDY    39  25  57 SW15      29.81R WCI  31
THEDFORD       CLOUDY    38  30  72 W12G20    29.86R WCI  31
$$

NEZ041-046>049-061>064-073>077-083>087-260200-
SOUTH CENTRAL NEBRASKA

CITY           SKY/WX    TMP DP  RH WIND       PRES   REMARKS
GRAND ISLAND   CLOUDY    42  23  46 S7        29.83F
AURORA         CLOUDY    44  23  43 S8        29.83F
HASTINGS       CLOUDY    43  19  38 S7        29.83F
HEBRON         CLOUDY    47  20  35 S10       29.90F
HOLDREGE       MOCLDY    42  24  49 W6        29.84S
KEARNEY *      MOCLDY    37  18  44 SW7       29.84S WCI  32
YORK           CLOUDY    43  25  49 SW6       29.86F
$$

NEZ011>018-030>034-042>045-260200-
NORTHEAST NEBRASKA

CITY           SKY/WX    TMP DP  RH WIND       PRES   REMARKS
NORFOLK        LGT RAIN  40  32  73 S8        29.84F WCI  34
ALBION         CLOUDY    38  26  60 S3        29.81F
BLAIR          CLOUDY    40  26  58 S10       29.90F WCI  33
COLUMBUS *     CLOUDY    45  25  45 SW8       29.87F
FREMONT        CLOUDY    42  26  54 S10       29.90F
TEKAMAH        CLOUDY    36  24  62 SE13      29.91F WCI  27
WAYNE          LGT RAIN  40  29  64 SW13      29.87S WCI  33
$$

NEZ050>053-065>068-078-088>093-260200-
SOUTHEAST NEBRASKA

CITY           SKY/WX    TMP DP  RH WIND       PRES   REMARKS
LINCOLN        CLOUDY    43  25  49 SW9       29.93F
OMAHA EPPLEY   CLOUDY    38  24  57 S14       29.95F WCI  30
BEATRICE       CLOUDY    42  26  53 S10       29.93F
FALLS CITY     MOCLDY    34  23  64 SE10      30.00F WCI  26
NEBRASKA CITY  CLOUDY    38  20  48 S14       29.96F WCI  30
PLATTSMOUTH    CLOUDY    38  24  55 SE12      29.94F WCI  31
$$

NEZ044-045-051>053-067-260200-
OMAHA AREA

CITY           SKY/WX    TMP DP  RH WIND       PRES   REMARKS
OMAHA EPPLEY   CLOUDY    38  24  57 S14       29.95F WCI  30
BLAIR          CLOUDY    40  26  58 S10       29.90F WCI  33
FREMONT        CLOUDY    42  26  54 S10       29.90F
MILLARD        CLOUDY    40  27  60 SE7       29.92F
OFFUTT AFB     CLOUDY    37  25  61 SE13      29.94F WCI  29
PLATTSMOUTH    CLOUDY    38  24  55 SE12      29.94F WCI  31
WAHOO          CLOUDY    40  25  55 S8        29.90F WCI  35
$$


USA.gov is the U.S. government's official web portal to all federal, state and local government web resources and services.